Location: Czu?�w
(50.1404°N, 18.9919°E)
Time: 03:22:01
(UTC+00:00)

Cosmos 1953 - Pass Details

Date: 27 October 2020
Orbit: 540 x 556 km, 82.5° (Epoch: 27 November)

Event Time Altitude Azimuth Distance (km) Brightness Sun altitude
Rises 16:09:09 0° 208° (SSW) 2,688 6.5 -7.1°
Reaches altitude 10° 16:11:24 10° 217° (SW) 1,802 5.7 -7.4°
Maximum altitude 16:15:07 38° 286° (WNW) 838 3.9 -8.0°
Drops below altitude 10° 16:18:53 10° 356° (N) 1,820 4.9 -8.6°
Sets 16:21:10 0° 5° (N) 2,720 5.7 -9.0°
